Time,TemperatureF,DewpointF,PressureIn,WindDirection,WindDirectionDegrees,WindSpeedMPH,WindSpeedGustMPH,Humidity,HourlyPrecipIn,Conditions,Clouds,dailyrainin,SoftwareType,DateUTC
2014-07-11 00:07:00,63.5,53.6,29.92,SE,131,1.1,6.5,63,0.00,,,0.00,perl,2014-07-11 07:07:00,
2014-07-11 00:17:00,62.9,53.5,29.92,SE,143,1.4,6.5,64,0.00,,,0.00,perl,2014-07-11 07:17:00,
2014-07-11 00:27:00,62.5,53.5,29.92,SSE,150,1.1,4.9,65,0.00,,,0.00,perl,2014-07-11 07:27:00,
2014-07-11 00:37:00,62.1,53.4,29.92,SE,144,1.1,6.5,66,0.00,,,0.00,perl,2014-07-11 07:37:00,
2014-07-11 00:47:00,61.9,53.4,29.92,SE,145,0.9,4.9,67,0.00,,,0.00,perl,2014-07-11 07:47:00,
2014-07-11 00:57:00,61.8,53.4,29.92,SSE,152,0.8,4.9,67,0.00,,,0.00,perl,2014-07-11 07:57:00,
2014-07-11 01:07:00,61.7,53.4,29.92,SSE,147,1.3,6.5,67,0.00,,,0.00,perl,2014-07-11 08:07:00,
2014-07-11 01:17:00,61.6,53.1,29.92,SSE,157,0.3,3.3,67,0.00,,,0.00,perl,2014-07-11 08:17:00,
2014-07-11 01:27:00,61.8,53.2,29.92,SSE,154,0.5,4.9,66,0.00,,,0.00,perl,2014-07-11 08:27:00,
2014-07-11 01:37:00,61.7,53.2,29.92,SSE,159,1.0,6.5,66,0.00,,,0.00,perl,2014-07-11 08:37:00,
2014-07-11 01:47:00,61.5,53.1,29.92,SSE,148,0.5,4.9,67,0.00,,,0.00,perl,2014-07-11 08:47:00,
2014-07-11 01:57:00,61.4,53.0,29.92,SE,124,0.2,1.6,67,0.00,,,0.00,perl,2014-07-11 08:57:00,
2014-07-11 02:07:00,61.4,53.0,29.92,SSE,155,0.3,1.6,67,0.00,,,0.00,perl,2014-07-11 09:07:00,
2014-07-11 02:17:00,61.2,52.9,29.92,South,169,1.0,8.1,67,0.00,,,0.00,perl,2014-07-11 09:17:00,
2014-07-11 02:27:00,60.9,52.8,29.92,SE,141,0.6,4.9,68,0.00,,,0.00,perl,2014-07-11 09:27:00,
2014-07-11 02:37:00,60.6,52.8,29.92,SSW,198,1.1,8.1,68,0.00,,,0.00,perl,2014-07-11 09:37:00,
2014-07-11 02:47:00,60.5,52.7,29.92,SSE,149,0.4,3.3,69,0.00,,,0.00,perl,2014-07-11 09:47:00,
2014-07-11 02:57:00,60.5,52.7,29.92,East,99,0.1,3.3,68,0.00,,,0.00,perl,2014-07-11 09:57:00,
2014-07-11 03:07:00,60.7,52.8,29.92,East,90,0.0,0.0,68,0.00,,,0.00,perl,2014-07-11 10:07:00,
2014-07-11 03:17:00,60.6,52.6,29.92,NW,315,0.0,1.6,68,0.00,,,0.00,perl,2014-07-11 10:17:00,
2014-07-11 03:27:00,60.5,52.6,29.92,ENE,73,0.1,1.6,68,0.00,,,0.00,perl,2014-07-11 10:27:00,
2014-07-11 03:37:00,60.5,52.5,29.92,SE,135,0.0,1.6,68,0.00,,,0.00,perl,2014-07-11 10:37:00,
2014-07-11 03:47:00,60.3,52.5,29.92,NW,305,0.2,4.9,68,0.00,,,0.00,perl,2014-07-11 10:47:00,
2014-07-11 03:57:00,60.2,52.4,29.93,North,0,0.0,0.0,69,0.00,,,0.00,perl,2014-07-11 10:57:00,
2014-07-11 04:07:00,60.1,52.5,29.93,SW,225,0.1,1.6,69,0.00,,,0.00,perl,2014-07-11 11:07:00,
2014-07-11 04:17:00,60.0,52.6,29.93,SSW,192,0.5,4.9,70,0.00,,,0.00,perl,2014-07-11 11:17:00,
2014-07-11 04:27:00,59.9,52.8,29.93,ENE,67,0.1,3.3,71,0.00,,,0.00,perl,2014-07-11 11:27:00,
2014-07-11 04:37:00,59.9,52.9,29.93,WSW,251,0.1,3.3,71,0.00,,,0.00,perl,2014-07-11 11:37:00,
2014-07-11 04:47:00,59.6,52.8,29.93,NE,55,0.3,4.9,72,0.00,,,0.00,perl,2014-07-11 11:47:00,
2014-07-11 04:57:00,59.6,52.9,29.93,NE,38,0.1,1.6,72,0.00,,,0.00,perl,2014-07-11 11:57:00,
2014-07-11 05:07:00,59.6,52.8,29.94,SE,146,0.3,4.9,72,0.00,,,0.00,perl,2014-07-11 12:07:00,
2014-07-11 05:17:00,59.3,52.7,29.94,East,85,0.1,3.3,72,0.00,,,0.00,perl,2014-07-11 12:17:00,
2014-07-11 05:27:00,59.3,52.8,29.95,ESE,112,0.0,1.6,73,0.00,,,0.00,perl,2014-07-11 12:27:00,
2014-07-11 05:37:00,59.2,52.7,29.95,WNW,297,0.1,3.3,73,0.00,,,0.00,perl,2014-07-11 12:37:00,
2014-07-11 05:47:00,59.1,52.5,29.95,NNE,19,0.1,1.6,73,0.00,,,0.00,perl,2014-07-11 12:47:00,
2014-07-11 05:57:00,59.0,52.3,29.95,SW,225,0.0,1.6,72,0.00,,,0.00,perl,2014-07-11 12:57:00,
2014-07-11 06:07:00,58.9,52.3,29.95,SE,135,0.0,1.6,72,0.00,,,0.00,perl,2014-07-11 13:07:00,
2014-07-11 06:17:00,58.9,52.3,29.95,East,82,0.2,1.6,72,0.00,,,0.00,perl,2014-07-11 13:17:00,
2014-07-11 06:27:00,58.8,52.3,29.96,ENE,76,0.2,1.6,73,0.00,,,0.00,perl,2014-07-11 13:27:00,
2014-07-11 06:37:00,59.0,52.3,29.96,SSE,168,0.6,6.5,72,0.00,,,0.00,perl,2014-07-11 13:37:00,
2014-07-11 06:47:00,58.8,52.1,29.96,NNW,332,1.1,6.5,72,0.00,,,0.00,perl,2014-07-11 13:47:00,
2014-07-11 06:57:00,58.9,52.2,29.97,SW,216,0.9,8.1,72,0.00,,,0.00,perl,2014-07-11 13:57:00,
2014-07-11 07:07:00,58.9,52.1,29.97,WNW,287,0.8,8.1,72,0.00,,,0.00,perl,2014-07-11 14:07:00,
2014-07-11 07:17:00,58.8,52.1,29.97,South,187,1.2,8.1,72,0.00,,,0.00,perl,2014-07-11 14:17:00,
2014-07-11 07:27:00,58.9,52.1,29.97,SSE,157,1.3,6.5,72,0.00,,,0.00,perl,2014-07-11 14:27:00,
2014-07-11 07:37:00,59.0,52.1,29.98,South,189,0.9,6.5,71,0.00,,,0.00,perl,2014-07-11 14:37:00,
2014-07-11 07:47:00,59.2,52.1,29.98,SW,216,1.0,9.8,71,0.00,,,0.00,perl,2014-07-11 14:47:00,
2014-07-11 07:57:00,59.1,52.1,29.98,SW,232,3.7,11.4,71,0.00,,,0.00,perl,2014-07-11 14:57:00,
2014-07-11 08:07:00,59.2,52.2,29.98,WSW,241,2.3,8.1,71,0.00,,,0.00,perl,2014-07-11 15:07:00,
2014-07-11 08:17:00,59.7,52.3,29.98,West,262,1.0,8.1,70,0.00,,,0.00,perl,2014-07-11 15:17:00,
2014-07-11 08:27:00,60.1,52.5,29.99,SSW,209,1.3,6.5,69,0.00,,,0.00,perl,2014-07-11 15:27:00,
2014-07-11 08:37:00,60.7,52.9,29.99,NE,36,0.6,4.9,69,0.00,,,0.00,perl,2014-07-11 15:37:00,
2014-07-11 08:47:00,61.3,53.7,29.99,NNE,29,2.0,6.5,70,0.00,,,0.00,perl,2014-07-11 15:47:00,